Wind_Speed
19 14 13 9 10 11 9 11 12 10 11 12 16 19 21 24 25 25 27 28 30 29 28 26 23 25 28 32 36 38 38 35 35 35 34 34 33 31 33 33 33 34 37
37 17 11 10 8 7 6 11 12 11 9 10 14 15 18 20 21 22 27 27 26 26 28 28 26 27 28 30 31 33 32 33 31 32 30 29 30 28 30 31 30 29 30
48 35 21 13 14 13 12 11 13 14 14 13 11 13 14 12 15 20 26 26 27 29 30 29 27 28 27 26 28 29 28 29 29 28 29 29 28 28 29 30 31 31 32
41 40 29 21 15 16 17 14 13 14 14 16 17 18 19 19 21 25 26 26 24 24 25 25 25 25 26 28 29 28 25 26 26 28 27 28 27 30 32 31 31 33 34
31 33 29 26 25 18 15 14 12 14 14 16 17 16 21 24 26 25 26 26 25 22 22 21 22 23 25 28 28 28 27 26 25 26 27 29 31 32 31 31 32 33 31
30 27 25 27 28 23 17 13 12 18 19 19 18 22 24 24 25 24 27 27 26 26 26 25 25 22 23 28 30 28 27 28 28 27 29 30 31 32 34 31 29 29 25
27 25 26 25 27 25 23 19 15 10 12 15 21 22 21 25 27 28 27 29 30 28 30 30 29 29 27 27 28 30 32 31 31 28 29 30 29 28 28 26 28 27 27
40 29 26 22 22 26 27 24 22 13 13 13 18 22 22 24 27 29 30 32 32 33 33 31 32 32 31 28 28 29 31 33 33 32 30 31 29 28 26 25 24 22 23
38 39 34 24 22 22 26 29 28 25 21 16 14 14 17 19 22 26 29 33 35 36 38 38 35 35 34 27 24 28 30 32 34 36 32 33 31 26 23 24 26 20 22
42 33 37 29 23 22 22 23 27 29 29 26 20 18 15 16 19 22 27 28 27 29 32 34 33 35 32 36 39 37 36 36 34 31 33 36 34 33 25 28 24 30 25
39 37 36 39 33 26 23 24 26 30 32 32 30 24 24 23 22 26 23 26 29 26 28 31 31 32 35 36 36 37 37 36 33 36 33 36 36 37 34 27 28 30 34
29 28 32 38 41 40 35 29 27 28 34 35 38 31 27 28 32 32 30 33 31 31 31 28 27 28 30 33 33 30 32 32 36 36 36 37 36 34 35 32 31 34 34
32 25 45 36 38 41 47 40 35 35 34 36 33 35 35 35 36 36 35 35 37 36 35 35 33 35 37 39 34 32 26 24 28 28 31 35 35 37 38 38 35 36 38
34 54 66 49 48 45 45 42 41 36 36 35 38 40 38 37 42 44 43 41 41 43 40 36 35 33 34 38 33 26 32 32 29 32 34 34 34 34 41 42 35 38 37
43 71 67 61 54 51 50 45 43 45 45 41 41 38 39 39 36 39 38 40 40 41 39 41 37 40 40 40 38 37 36 38 37 42 40 35 34 32 34 34 35 35 39
59 66 63 60 57 52 52 49 50 42 40 48 47 45 45 44 45 48 43 45 49 50 50 50 47 47 48 46 46 42 40 40 39 34 29 34 40 38 36 34 34 32 34
56 61 63 64 64 56 49 50 54 53 54 53 52 54 55 54 53 55 56 53 51 48 56 57 59 54 55 56 56 53 47 41 38 39 33 32 32 38 40 41 35 38 36
56 64 68 69 62 57 54 54 55 59 63 62 61 60 59 58 58 59 60 61 61 60 59 57 58 58 63 65 63 62 64 57 52 45 46 41 40 36 35 42 51 46 43
66 66 67 62 59 60 61 61 61 61 64 66 68 64 64 63 63 63 62 62 66 62 64 63 63 61 59 57 57 59 61 60 62 60 55 49 44 47 42 41 40 42 47
64 61 62 67 68 69 69 68 67 66 66 66 68 69 71 71 68 67 68 67 67 67 69 69 69 67 66 65 60 57 55 57 60 59 59 57 58 57 54 49 51 45 47
77 78 81 82 77 72 72 73 71 70 69 69 71 72 72 73 73 75 73 71 73 73 73 74 76 73 74 71 69 69 66 64 61 57 56 58 61 63 62 61 60 60 54
85 86 82 79 74 71 73 74 74 72 70 73 74 75 75 76 77 78 78 78 76 75 74 76 75 75 71 72 71 69 67 68 67 67 66 67 63 62 61 60 60 57 57
77 71 68 71 70 68 69 72 72 76 78 77 76 77 79 79 80 80 79 79 78 78 78 77 78 79 77 74 73 72 71 73 70 66 67 68 69 70 68 66 66 66 65
67 68 66 68 69 70 71 72 74 75 76 77 78 77 75 76 78 79 80 78 77 78 78 80 80 83 83 83 84 82 76 73 70 70 69 73 76 76 75 74 74 71 72
64 62 62 63 62 63 65 68 72 75 76 77 78 79 82 77 71 70 73 76 78 78 80 81 83 84 86 87 86 86 87 81 77 73 72 70 74 79 79 80 79 77 76
53 60 65 64 65 67 69 69 71 73 75 78 80 80 80 81 80 80 79 78 78 78 78 83 84 86 87 88 89 88 88 88 85 83 80 80 78 80 82 83 82 82 83
Wind_Direction
327 321 341 337 330 338 318 322 308 303 296 279 276 268 268 264 264 267 266 266 268 271 274 278 274 267 270 273 277 281 282 281 283 281 285 285 281 282 285 289 290 292 295
10 350 326 327 306 317 320 322 318 289 267 267 266 268 268 269 272 278 278 278 277 275 273 269 267 266 268 272 271 276 278 279 280 281 285 285 283 284 291 291 294 298 298
11 19 5 318 305 298 306 314 326 323 288 271 278 291 287 288 286 292 283 277 278 272 272 270 262 261 262 258 259 267 273 279 284 283 283 284 287 288 288 291 293 298 297
9 5 13 10 347 311 306 300 307 314 323 299 295 291 292 296 307 296 291 288 278 278 274 271 266 262 261 257 260 265 271 278 281 284 283 285 283 286 287 287 290 294 296
7 10 7 16 23 11 329 304 298 293 289 300 301 290 290 294 296 294 290 285 276 280 278 277 273 266 263 262 268 274 277 276 280 284 283 276 280 283 278 282 287 292 286
349 359 4 360 2 13 30 7 325 296 286 283 280 285 286 284 293 295 288 280 275 279 281 281 277 265 259 259 267 273 279 280 281 280 278 276 277 276 278 283 291 281 273
341 346 349 353 354 353 356 7 9 358 337 306 282 281 283 279 287 292 292 285 282 280 283 281 278 277 270 265 269 274 278 282 285 286 279 274 274 277 275 282 284 272 269
341 335 336 338 339 339 343 344 354 351 354 351 322 299 292 288 284 281 280 282 285 281 283 285 281 277 275 275 274 279 276 276 277 276 280 271 269 273 275 277 276 271 261
332 333 334 326 325 335 330 326 327 330 336 333 348 336 322 308 299 293 291 291 281 279 282 282 282 284 274 268 268 266 272 278 275 277 274 267 266 265 265 268 263 245 250
330 321 330 317 325 327 315 314 311 316 317 316 313 316 319 311 309 312 302 292 284 286 288 285 278 274 277 276 283 275 277 280 281 277 276 267 265 263 264 269 259 251 251
317 312 318 323 310 314 317 310 298 299 302 298 300 302 301 299 297 304 308 309 300 291 290 287 284 282 282 281 285 279 282 281 278 276 274 278 269 263 262 265 264 252 243
301 303 312 311 308 302 302 307 302 301 287 290 286 282 279 286 296 305 301 302 299 306 298 291 282 283 289 292 290 300 292 286 289 283 280 277 269 269 264 268 266 247 238
278 318 326 311 305 295 297 299 296 298 299 293 299 287 283 286 291 288 291 294 295 299 295 292 285 287 287 292 282 288 299 298 295 292 294 288 280 274 268 278 276 253 244
281 308 317 314 307 290 283 288 284 289 289 291 292 291 292 292 288 287 289 288 290 290 287 286 284 289 284 287 278 284 278 278 279 276 290 292 284 281 271 275 276 271 248
255 290 304 308 303 289 280 280 284 284 285 284 283 281 280 276 278 290 277 278 277 275 274 278 273 271 273 271 273 268 269 271 266 261 264 265 273 277 278 279 276 275 256
286 288 299 296 292 286 282 280 278 278 274 279 275 276 278 278 275 283 280 281 282 277 272 270 267 269 272 266 271 262 260 260 260 265 274 262 260 265 272 273 272 272 238
292 290 290 288 285 282 278 277 276 272 273 275 275 276 274 273 273 275 277 276 273 278 280 278 273 273 272 271 273 273 262 261 258 256 263 264 266 265 255 259 266 268 261
291 284 281 280 282 278 277 275 276 273 272 275 272 272 273 272 272 271 273 274 276 277 273 274 276 276 273 274 276 277 270 268 262 261 256 255 256 256 261 256 254 255 249
288 285 284 283 280 281 281 278 275 275 268 269 270 270 270 270 269 273 274 276 275 274 275 277 274 273 274 275 276 278 278 274 267 266 263 256 254 257 258 256 257 259 254
289 287 290 292 290 287 283 278 276 274 270 269 270 270 269 270 272 272 271 271 272 273 273 274 274 272 270 271 270 272 274 275 273 272 270 268 265 262 256 257 260 261 261
292 291 292 291 290 285 281 279 279 276 273 270 267 267 268 269 270 272 272 271 272 271 272 271 272 273 274 273 270 272 272 271 269 266 267 269 268 267 264 257 255 258 256
298 295 292 289 286 284 280 278 278 278 279 278 276 273 271 269 268 268 269 271 272 273 272 270 270 272 272 274 273 270 270 272 271 269 270 267 267 265 262 262 265 263 266
298 296 293 289 288 288 285 283 280 277 276 276 276 276 274 273 273 272 272 273 273 272 273 275 275 274 274 272 270 271 270 270 270 268 268 266 267 264 263 264 264 264 264
297 294 291 290 289 286 286 285 284 282 279 277 275 275 274 275 274 274 274 273 272 271 271 272 274 274 273 272 272 271 270 269 266 263 263 265 265 265 264 263 261 260 261
297 294 291 289 287 287 285 283 282 282 282 281 280 276 272 272 271 270 268 268 268 268 270 271 272 271 272 271 271 271 269 268 265 261 263 261 261 260 261 260 261 261 261
292 294 293 290 287 286 285 284 283 282 281 280 278 278 277 276 276 274 273 272 272 271 270 271 271 271 271 271 272 272 270 269 271 267 263 264 263 261 257 257 258 257 259
Height
10832 10828 10824 10821 10820 10820 10818 10817 10816 10815 10814 10814 10815 10815 10816 10816 10816 10816 10815 10815 10815 10816 10816 10816 10815 10814 10813 10814 10814 10815 10816 10814 10814 10814 10816 10818 10814 10813 10811 10810 10809 10809 10807
10835 10825 10824 10823 10822 10820 10818 10817 10814 10813 10813 10812 10813 10813 10812 10812 10812 10812 10811 10810 10810 10810 10810 10810 10810 10809 10809 10809 10809 10811 10812 10811 10811 10811 10811 10811 10809 10807 10804 10803 10803 10803 10803
10834 10826 10823 10823 10824 10822 10819 10817 10815 10813 10812 10812 10812 10811 10811 10810 10810 10810 10808 10807 10807 10806 10806 10806 10805 10805 10805 10806 10806 10808 10809 10809 10808 10807 10807 10806 10804 10802 10800 10800 10800 10801 10799
10837 10831 10828 10825 10822 10820 10818 10817 10815 10814 10813 10812 10811 10811 10811 10810 10809 10808 10806 10805 10805 10805 10804 10804 10803 10803 10803 10803 10803 10804 10806 10805 10805 10804 10803 10802 10801 10799 10799 10798 10797 10798 10797
10840 10837 10834 10830 10825 10819 10816 10815 10814 10813 10812 10811 10810 10809 10808 10808 10807 10806 10805 10804 10804 10803 10803 10802 10802 10802 10802 10802 10801 10801 10802 10801 10800 10800 10799 10799 10798 10797 10796 10796 10796 10796 10795
10844 10840 10836 10833 10829 10824 10819 10815 10812 10811 10810 10808 10807 10807 10806 10805 10805 10804 10803 10802 10801 10800 10800 10799 10799 10799 10799 10799 10799 10798 10798 10797 10797 10797 10797 10795 10794 10794 10794 10794 10794 10793 10793
10847 10840 10835 10831 10828 10825 10823 10819 10814 10809 10807 10806 10804 10803 10803 10803 10803 10803 10801 10799 10798 10797 10796 10795 10795 10795 10794 10794 10794 10794 10794 10793 10793 10794 10793 10791 10791 10791 10790 10790 10791 10790 10790
10849 10842 10836 10831 10826 10824 10821 10819 10816 10812 10808 10804 10801 10799 10799 10798 10797 10796 10795 10795 10795 10793 10791 10791 10790 10789 10789 10789 10790 10790 10790 10789 10788 10789 10790 10787 10788 10787 10786 10786 10786 10786 10785
10846 10842 10839 10833 10827 10823 10820 10817 10814 10811 10808 10805 10801 10798 10796 10793 10792 10791 10791 10791 10790 10788 10787 10786 10785 10784 10784 10785 10785 10784 10783 10783 10784 10783 10783 10781 10782 10782 10782 10782 10782 10781 10781
10839 10835 10832 10833 10830 10823 10818 10815 10812 10810 10807 10802 10799 10797 10794 10791 10789 10786 10786 10784 10783 10782 10781 10779 10778 10779 10779 10779 10779 10781 10779 10778 10779 10778 10778 10776 10777 10777 10777 10776 10776 10777 10776
10835 10831 10827 10822 10827 10825 10817 10812 10809 10805 10803 10800 10797 10794 10791 10788 10786 10784 10781 10779 10779 10777 10775 10773 10772 10773 10773 10772 10772 10772 10773 10773 10772 10772 10772 10770 10772 10771 10772 10771 10770 10770 10771
10830 10825 10824 10821 10817 10821 10814 10809 10803 10801 10798 10794 10791 10789 10785 10783 10780 10777 10777 10777 10775 10773 10770 10769 10767 10766 10765 10765 10764 10764 10764 10765 10765 10765 10765 10764 10765 10765 10765 10765 10764 10764 10764
10816 10815 10820 10815 10815 10817 10811 10802 10798 10794 10790 10788 10785 10782 10780 10777 10775 10772 10769 10767 10768 10766 10764 10764 10761 10759 10759 10758 10758 10758 10757 10758 10759 10760 10760 10758 10758 10759 10757 10757 10758 10757 10757
10812 10804 10814 10809 10810 10811 10808 10797 10793 10787 10783 10780 10777 10774 10772 10770 10767 10767 10764 10761 10760 10756 10756 10753 10752 10752 10750 10750 10750 10751 10751 10752 10755 10756 10757 10751 10751 10750 10751 10749 10751 10751 10751
10825 10809 10809 10801 10801 10803 10797 10789 10783 10779 10776 10774 10769 10767 10765 10763 10762 10758 10757 10755 10754 10752 10749 10747 10746 10744 10743 10743 10743 10744 10744 10742 10745 10746 10748 10746 10742 10740 10742 10741 10743 10742 10743
10820 10811 10802 10794 10795 10795 10784 10777 10773 10769 10767 10765 10761 10758 10757 10755 10753 10749 10747 10744 10744 10742 10740 10737 10736 10735 10734 10733 10733 10735 10734 10733 10733 10734 10734 10735 10734 10732 10731 10733 10734 10735 10734
10802 10792 10786 10784 10787 10780 10768 10764 10760 10756 10754 10751 10748 10745 10744 10742 10740 10736 10734 10734 10731 10730 10727 10726 10724 10723 10721 10723 10721 10723 10723 10723 10722 10722 10722 10722 10723 10722 10722 10724 10726 10727 10729
10785 10779 10778 10777 10768 10758 10754 10751 10747 10745 10740 10738 10735 10732 10729 10727 10723 10722 10720 10719 10718 10717 10715 10714 10712 10710 10709 10709 10708 10708 10710 10710 10710 10711 10709 10710 10710 10711 10710 10713 10715 10717 10719
10766 10762 10757 10750 10745 10739 10736 10734 10731 10728 10726 10723 10720 10717 10714 10712 10709 10707 10707 10705 10704 10702 10701 10699 10697 10696 10695 10695 10695 10695 10694 10694 10694 10696 10697 10697 10697 10697 10698 10700 10702 10704 10707
10745 10740 10734 10727 10722 10719 10714 10711 10710 10708 10707 10706 10702 10700 10697 10696 10694 10692 10691 10690 10688 10686 10685 10683 10681 10681 10680 10680 10681 10680 10680 10679 10680 10681 10681 10681 10682 10683 10685 10686 10686 10689 10694
10728 10724 10719 10712 10705 10699 10693 10691 10688 10687 10686 10684 10683 10682 10681 10679 10678 10675 10673 10672 10670 10669 10667 10666 10664 10663 10662 10664 10665 10665 10663 10663 10664 10666 10665 10666 10667 10667 10671 10673 10673 10676 10677
10707 10700 10695 10689 10687 10683 10679 10675 10672 10668 10667 10664 10664 10662 10661 10659 10658 10657 10655 10653 10652 10650 10649 10648 10646 10645 10645 10644 10646 10648 10648 10645 10648 10647 10649 10648 10651 10651 10653 10655 10656 10659 10663
10683 10680 10676 10670 10668 10665 10661 10657 10656 10653 10650 10646 10644 10642 10639 10640 10638 10637 10634 10633 10632 10630 10628 10627 10627 10626 10625 10623 10625 10626 10628 10627 10626 10628 10629 10628 10629 10631 10634 10638 10638 10640 10642
10666 10661 10660 10653 10649 10646 10643 10639 10635 10632 10629 10627 10625 10621 10618 10618 10617 10615 10613 10611 10609 10608 10607 10606 10606 10603 10605 10603 10602 10603 10605 10605 10607 10608 10611 10611 10611 10611 10613 10617 10619 10620 10621
10651 10646 10642 10639 10636 10631 10626 10623 10618 10614 10610 10606 10603 10600 10599 10599 10599 10595 10590 10586 10586 10587 10586 10582 10582 10580 10579 10580 10579 10579 10581 10583 10584 10589 10588 10589 10592 10591 10593 10594 10596 10598 10600
10641 10637 10626 10625 10623 10617 10610 10606 10601 10596 10591 10587 10582 10579 10577 10577 10574 10570 10568 10566 10564 10562 10561 10559 10557 10556 10556 10555 10554 10553 10555 10557 10559 10564 10569 10567 10568 10569 10571 10572 10573 10575 10579